This is the latest recevied weather packets stored in our database for station/object KC9DNQ-3. If no packets are shown the sender has not sent any weather packets the latest 1 day(s).
| Time | Temp. | Humidity | Pressure | Rain* | Wind** | Luminosity | Snow |
|---|---|---|---|---|---|---|---|
| 1778055910 | 6.11° C | 77% | 1010.2 hPa | 0 mm | - | 0 W/m² | - |
| 1778054108 | 6.67° C | 73% | 1010.1 hPa | 0 mm | - | 0 W/m² | - |
| 1778053808 | 6.67° C | 74% | 1010 hPa | 0 mm | - | 0 W/m² | - |
| 1778052608 | 7.22° C | 74% | 1009.9 hPa | 0 mm | - | 0 W/m² | - |
| 1778052309 | 7.22° C | 73% | 1009.4 hPa | 0 mm | - | 0 W/m² | - |
| 1778051709 | 7.78° C | 73% | 1009.4 hPa | 0 mm | - | 0 W/m² | - |
| 1778051408 | 7.78° C | 72% | 1009.4 hPa | 0 mm | - | 0 W/m² | - |
| 1778051109 | 7.78° C | 72% | 1009.4 hPa | 0 mm | - | 0 W/m² | - |
| 1778050809 | 7.78° C | 72% | 1009.4 hPa | 0 mm | - | 0 W/m² | - |
| 1778050509 | 7.78° C | 73% | 1009.4 hPa | 0 mm | - | 0 W/m² | - |
| 1778049309 | 8.33° C | 72% | 1009.6 hPa | 0 mm | - | 0 W/m² | - |
| 1778048410 | 8.89° C | 71% | 1009.5 hPa | 0 mm | - | 0 W/m² | - |
| 1778047809 | 8.89° C | 72% | 1009.4 hPa | 0 mm | - | 0 W/m² | - |
| 1778047509 | 8.89° C | 67% | 1009.7 hPa | 0 mm | - | 0 W/m² | - |
| 1778046609 | 9.44° C | 66% | 1009.7 hPa | 0 mm | - | 0 W/m² | - |
| 1778045709 | 9.44° C | 68% | 1009.8 hPa | 0 mm | - | 0 W/m² | - |
| 1778044808 | 8.33° C | 72% | 1009.5 hPa | 0 mm | - | 0 W/m² | - |
| 1778044208 | 8.33° C | 75% | 1009.2 hPa | 0 mm | - | 0 W/m² | - |
| 1778043308 | 8.89° C | 75% | 1009.2 hPa | 0 mm | - | 0 W/m² | - |
| 1778042709 | 8.89° C | 76% | 1009.2 hPa | 0 mm | - | 0 W/m² | - |
| 1778041209 | 9.44° C | 74% | 1009.4 hPa | 0 mm | - | 0 W/m² | - |
| 1778040909 | 9.44° C | 74% | 1009.5 hPa | 0 mm | - | 0 W/m² | - |
| 1778040609 | 9.44° C | 74% | 1009.5 hPa | 0 mm | - | 0 W/m² | - |
| 1778040009 | 9.44° C | 72% | 1009.5 hPa | 0 mm | - | 0 W/m² | - |
| 1778039709 | 9.44° C | 69% | 1009.5 hPa | 0 mm | - | 0 W/m² | - |
* Rain latest hour (hover to see other rain measurements)
** Current wind speed in m/s (hover to see current wind gust speed)